SCP
0 0 0 0 0 0 0 0 0 0 0 0 0 0 0 0 0 0 0 0 0 0 0 0 0 0 0 0 0 0 0 0 0 0 0 0 0 0 0 0 0 0 0 0 0 0 0 0 0
0 0 0 0 0 0 0 0 0 0 0 0 0 0 0 0 0 0 0 0 0 0 0 0 0 0 0 0 0 0 0 0 0 0 0 0 0 0 0 0 0 0 0 0 0 0 0 0 0
0 0 0 0 0 0 0 0 0 0 0 0 0 0 0 0 0 0 0 0 0 0 0 0 0 0 0 0 0 0 0 0 0 0 0 0 0 0 0 0 0 0 0 0 0 0 0 0 0
0 0 0 0 0 0 0 0 0 0 0 0 0 0 0 0 0 0 0 0 0 0 0 0 0 0 0 0 0 0 0 0 0 0 0 0 0 0 0 0 0 0 0 0 0 0 0 0 0
0 0 0 0 0 0 0 0 0 0 0 0 0 0 0 0 0 0 0 0 0 0 0 0 0 0 0 0 0 0 0 0 0 0 0 0 0 0 0 0 0 0 0 0 0 0 0 0 0
0 0 0 0 0 0 0 0 0 0 0 0 0 0 0 0 0 0 0 0 0 0 0 0 0 0 0 0 0 0 0 0 0 0 0 0 0 0 0 0 0 0 0 0 0 0 0 0 0
0 0 0 0 0 0 0 0 0 0 0 0 0 0 0 0 0 0 0 0 0 0 0 0 0 0 0 0 0 0 0 0 0 0 0 0 0 0 0 0 0 0 0 0 0 0 0 0 0
0 0 0 0 0 0 0 0 0 0 0 0 0 0 0 0 0 0 0 0 0 0 0 0 0 0 0 0 0 0 0 0 0 0 0 0 0 0 0 0 0 0 0 0 0 0 0 0 0
0 0 0 0 0 0 0 0 0 0 0 0 0 0 0 0 0 0 0 0 0 0 0 0 0 0 0 0 0 0 0 0 0 0 0 0 0 0 0 0 0 0 0 0 0 0 0 0 0
0 0 0 0 0 0 0 0 0 0 0 0 0 0 0 0 0 0 0 0 0 0 0 0 0 0 0 0 0 0 0 0 0 0 0 0 0 0 0 0 0 0 0 0 0 0 0 0 0
0 0 0 0 0 0 0 0 0 0 0 0 0 0 0 0 0 0 0 0 0 0 0 0 0 0 0 0 0 0 0 0 0 0 0 0 0 0 0 0 0 0 0 0 0 0 0 0 0
0 0 0 0 0 0 0 0 0 0 0 0 0 0 0 0 0 0 0 0 0 0 0 0 0 0 0 0 0 0 0 0 0 0 0 0 0 0 0 0 0 0 0 0 0 0 0 0 0
0 0 0 0 0 0 0 0 0 0 0 0 0 0 0 0 0 0 0 0 0 0 0 0 0 0 0 0 0 0 0 0 0 0 0 0 0 0 0 0 0 0 0 0 0 0 0 0 0
0 0 0 0 0 0 0 0 0 0 0 0 0 0 0 0 0 0 0 0 0 0 0 0 0 0 0 0 0 0 0 0 0 0 0 0 0 0 0 0 0 0 0 0 0 0 0 0 0
0 0 0 0 0 0 0 0 0 0 0 0 0 0 0 0 0 0 0 0 0 0 0 0 0 0 0 0 0 0 0 0 0 0 0 0 0 0 0 0 0 0 0 0 0 0 0 0 0
0 0 0 0 0 0 0 0 0 0 0 0 0 0 0 0 0 0 0 0 0 0 0 0 0 0 0 0 0 0 0 0 0 0 0 0 0 0 0 0 0 0 0 0 0 0 0 0 0
0 0 0 0 0 0 0 0 0 0 0 0 0 0 0 0 0 0 0 0 0 0 0 0 0 0 0 0 0 0 0 0 0 0 0 0 0 0 0 0 0 0 0 0 0 0 0 0 0
0 0 0 0 0 0 0 0 0 0 0 0 0 0 0 0 0 0 0 0 0 0 0 0 0 0 0 0 0 0 0 0 0 0 0 0 0 0 0 0 0 0 0 0 0 0 0 0 0
0 0 0 0 0 0 0 0 0 0 0 0 0 0 0 0 0 0 0 0 0 0 0 0 0 0 0 0 0 0 0 0 0 0 0 0 0 0 0 0 0 0 0 0 0 0 0 0 0
0 0 0 0 0 0 0 0 0 0 0 0 0 0 0 0 0 0 0 0 0 0 0 0 0 0 0 0 0 0 0 0 0 0 0 0 0 0 0 0 0 0 0 0 0 0 0 0 0
0 0 0 0 0 0 0 0 0 0 0 0 0 0 0 0 0 0 0 0 0 0 0 0 0 0 0 0 0 0 0 0 0 0 0 0 0 0 0 0 0 0 0 0 0 0 0 0 0
0 0 0 0 0 0 0 0 0 0 0 0 0 0 0 0 0 0 0 0 0 0 0 0 0 0 0 0 0 0 0 0 0 0 0 0 0 0 0 0 0 0 0 0 0 0 0 0 0
0 0 0 0 0 0 0 0 0 0 0 0 0 0 0 0 0 0 0 0 0 0 0 0 0 0 0 0 0 0 0 0 0 0 0 0 0 0 0 0 0 0 0 0 0 0 0 0 0
0 0 0 0 0 0 0 0 0 0 0 0 0 0 0 0 0 0 0 0 0 0 0 0 0 0 0 0 0 0 0 0 0 0 0 0 0 0 0 0 0 0 0 0 0 0 0 0 0
0 0 0 0 0 0 0 0 0 0 0 0 0 0 0 0 0 0 0 0 0 0 0 0 0 0 0 0 0 0 0 0 0 0 0 0 0 0 0 0 0 0 0 0 0 0 0 0 0
0 0 0 0 0 0 0 0 0 0 0 0 0 0 0 0 0 0 0 0 0 0 0 0 0 0 0 0 0 0 0 0 0 0 0 0 0 0 0 0 0 0 0 0 0 0 0 0 0
0 0 0 0 0 0 0 0 0 0 0 0 0 0 0 0 0 0 0 0 0 0 0 0 0 0 0 0 0 0 0 0 0 0 0 0 0 0 0 0 0 0 0 0 0 0 0 0 0
0 0 0 0 0 0 0 0 0 0 0 0 0 0 0 0 0 0 0 0 0 0 0 0 0 0 0 0 0 0 0 0 0 0 0 0 0 0 0 0 0 0 0 0 0 0 0 0 0
0 0 0 0 0 0 0 0 0 0 0 0 0 0 0 0 0 0 0 0 0 0 0 0 0 0 0 0 0 0 0 0 0 0 0 0 0 0 0 0 0 0 0 0 0 0 0 0 0
0 0 0 0 0 0 0 0 0 0 0 0 0 0 0 0 0 0 0 0 0 0 0 0 0 0 0 0 0 0 0 0 0 0 0 0 0 0 0 0 0 0 0 0 0 0 0 0 0
Wind_Speed
6 4 2 1 3 4 2 2 1 2 2 2 3 4 5 3 2 2 0 3 3 2 2 3 5 5 6 6 7 7 8 8 9 9 10 10 10 10 10 10 10 10 11 10 10 9 9 8 8
4 4 1 2 4 3 3 2 2 1 3 3 4 5 5 3 2 3 1 2 4 3 2 3 5 6 6 6 6 6 7 8 8 9 9 9 10 10 10 9 9 10 10 9 9 8 8 8 7
5 3 1 3 3 2 1 0 2 3 3 2 3 4 3 2 2 2 2 4 4 3 2 2 5 5 6 6 6 6 6 6 7 8 8 9 9 9 9 9 8 9 9 8 8 8 7 7 7
2 1 2 4 2 1 2 1 2 3 3 4 4 4 3 2 2 3 5 6 5 2 2 2 5 4 5 6 6 6 6 6 6 7 7 8 8 8 8 8 8 7 7 8 8 7 7 6 6
1 3 5 4 2 1 1 1 2 2 2 3 4 4 3 4 4 6 5 5 4 2 1 2 4 4 4 5 5 6 5 5 6 6 6 7 7 7 7 7 7 7 7 7 7 7 6 6 5
3 3 4 2 2 2 1 1 2 3 3 3 4 4 2 2 4 5 5 4 3 2 2 2 3 3 4 5 5 5 5 4 6 5 6 6 6 6 6 6 5 6 6 6 6 6 6 5 5
2 3 2 0 1 1 1 1 2 2 3 2 3 4 1 1 2 4 4 4 3 3 3 2 1 1 3 4 4 4 4 4 5 4 4 5 5 5 5 5 5 5 5 5 5 5 5 4 4
2 3 2 0 1 1 1 2 1 3 3 3 3 5 3 3 5 6 5 4 4 3 2 2 2 2 2 2 3 4 3 3 4 3 3 4 4 4 4 3 4 4 4 4 4 5 4 4 3
2 4 0 2 3 2 2 2 1 3 4 3 2 3 4 9 8 6 5 3 2 2 2 2 2 2 2 2 2 3 2 2 2 2 2 2 2 2 2 2 3 3 3 3 3 4 4 3 2
3 2 4 3 4 3 3 3 3 3 4 3 4 5 9 9 8 6 5 4 2 1 1 1 1 1 1 1 2 2 1 1 1 1 1 2 2 1 1 2 2 2 2 2 2 2 2 1 1
2 3 2 1 2 3 3 3 3 6 2 4 6 8 9 8 7 6 4 4 3 2 1 0 0 1 1 1 1 1 1 2 2 2 2 2 2 1 1 1 0 0 1 1 1 1 1 1 1
2 2 1 1 2 3 3 3 3 3 3 5 8 10 9 8 7 7 6 4 3 2 2 1 1 1 1 1 1 1 1 1 1 1 2 2 1 1 1 1 1 1 1 1 1 1 1 2 1
0 1 1 1 2 3 5 4 3 2 4 8 10 9 9 8 6 4 4 4 4 3 3 1 1 1 1 1 1 1 1 1 1 1 1 2 2 1 1 1 1 1 1 1 1 1 1 1 1
1 1 2 2 3 2 4 2 3 2 7 9 9 8 8 8 7 5 4 4 4 4 3 2 1 1 2 1 1 1 1 1 1 1 1 2 2 1 1 1 1 1 1 1 1 1 1 1 1
2 3 4 3 2 1 4 3 1 4 8 8 7 7 6 6 6 6 6 5 5 4 3 2 2 1 1 1 1 1 0 1 1 1 1 2 2 2 1 1 1 0 1 1 1 1 1 1 1
3 4 2 3 1 1 4 2 2 6 8 7 6 6 6 6 5 5 5 5 4 4 3 3 2 2 1 1 1 1 1 1 1 1 1 1 1 2 2 1 1 1 1 1 1 1 1 1 1
4 1 1 3 1 1 3 3 2 5 7 7 6 6 6 6 5 5 5 5 5 5 4 3 2 2 2 1 1 1 1 1 1 1 1 1 1 2 2 1 1 1 1 1 1 1 2 2 1
2 1 1 3 2 2 1 3 2 4 6 7 6 6 6 7 8 7 6 6 5 5 4 4 3 2 2 1 1 1 1 1 1 0 1 1 1 2 2 1 1 1 1 1 1 2 2 1 1
3 2 2 4 2 1 2 4 3 4 5 5 6 6 7 7 6 5 6 5 5 4 4 4 3 2 2 1 1 1 0 0 0 0 1 1 1 2 2 1 1 1 1 1 2 2 2 1 1
3 2 2 3 1 1 2 4 4 5 7 7 7 8 9 7 5 6 6 5 6 6 5 5 4 3 3 2 2 1 1 1 1 0 0 1 1 2 2 2 2 2 1 2 2 2 2 1 1
2 4 4 3 2 2 1 5 3 3 4 5 6 7 8 10 10 8 7 7 6 7 7 6 5 4 3 3 2 2 2 2 1 1 0 1 1 1 1 2 2 2 2 2 2 2 3 2 1
4 5 4 3 2 2 1 3 6 3 3 6 7 6 8 9 9 8 8 8 8 8 7 6 5 4 4 4 3 4 3 2 2 1 1 1 1 1 2 2 2 2 2 2 2 2 2 3 2
5 2 3 2 2 1 1 1 8 1 4 8 8 8 8 9 10 10 10 10 9 7 7 6 5 4 4 4 4 4 3 2 1 0 0 0 1 1 1 2 2 2 2 2 2 2 2 2 2
5 6 5 5 4 1 3 2 7 4 6 5 6 7 7 8 8 8 8 7 6 6 6 6 5 4 4 5 4 5 4 3 2 1 1 1 0 1 1 2 2 2 2 2 2 2 3 2 2
5 6 4 5 4 5 2 2 10 7 6 6 6 6 6 6 7 8 8 8 8 8 8 7 6 6 5 5 5 5 5 4 4 3 2 2 1 1 2 2 2 2 2 2 2 2 2 2 2
5 9 8 5 5 5 2 5 8 5 4 3 3 4 5 5 6 8 9 9 8 8 8 8 8 7 6 6 6 5 4 3 3 3 3 3 2 2 2 2 2 2 2 2 2 2 2 2 2
6 4 6 7 2 1 5 6 8 2 2 1 2 4 5 6 6 6 7 7 8 8 8 9 8 7 6 6 5 5 5 4 4 3 3 2 2 2 2 2 2 2 2 2 3 2 2 2 2
5 8 6 6 5 2 5 4 5 5 3 2 3 4 5 5 5 5 5 6 6 6 6 6 7 7 6 6 5 5 5 5 4 3 3 2 2 2 2 2 2 2 2 2 2 1 1 2 2
4 4 5 5 5 6 3 7 6 7 6 6 6 6 6 6 6 5 4 5 5 5 6 6 6 5 5 5 5 4 4 4 4 3 4 3 2 2 2 2 2 2 2 2 2 2 2 2 2
4 7 8 6 4 4 4 9 5 5 5 5 6 4 4 5 5 5 4 4 4 5 5 6 5 5 5 5 4 4 3 3 4 4 4 3 3 2 2 2 2 2 2 2 2 3 2 2 3
Wind_Direction
168 157 154 137 55 46 15 343 59 59 55 52 71 80 97 91 114 142 229 126 123 121 137 144 139 134 131 125 122 121 124 126 127 128 129 131 134 136 138 138 139 141 142 142 139 137 136 138 138
151 159 171 58 72 50 341 336 53 96 138 132 76 68 71 65 72 106 112 136 122 125 128 144 137 132 132 129 124 122 124 128 129 131 131 131 132 135 137 138 142 142 142 142 141 141 140 137 137
166 190 87 63 75 136 209 347 105 100 116 99 75 59 73 80 102 140 156 133 114 113 119 154 135 135 133 127 123 125 126 130 132 133 134 133 133 134 136 138 139 141 141 143 145 144 145 145 141
164 98 55 61 46 258 190 181 135 115 75 58 89 68 53 38 126 140 127 125 119 122 120 142 134 136 135 130 131 128 124 129 134 135 135 135 136 138 139 139 139 140 142 147 147 146 149 150 147
82 74 54 36 357 355 90 137 125 91 77 68 87 84 37 8 89 111 119 125 129 129 112 126 135 130 132 134 131 127 130 135 138 135 137 138 138 142 143 142 141 143 147 150 149 148 150 152 151
60 65 66 23 353 15 61 118 89 76 77 79 90 92 40 50 96 113 112 109 113 117 103 101 139 129 117 118 119 116 117 125 135 134 137 143 147 150 150 147 145 148 150 151 151 150 152 151 157
96 86 98 121 346 7 124 93 99 103 87 97 112 97 79 97 106 110 98 88 80 84 86 69 62 77 95 102 107 115 115 122 137 139 140 144 149 150 149 151 154 158 158 157 158 157 158 153 157
133 95 71 54 166 250 153 94 89 107 98 100 99 125 167 173 122 103 87 77 75 73 75 69 49 46 50 64 92 106 119 121 136 147 146 144 140 141 147 153 161 160 160 163 166 168 165 159 158
113 70 84 215 188 213 154 114 81 86 97 79 74 133 149 134 120 107 96 79 75 78 58 59 48 47 54 59 81 81 101 115 123 143 155 129 100 109 138 151 156 155 159 164 167 166 155 156 156
94 118 231 215 185 182 155 139 140 102 87 67 59 84 118 130 132 134 138 140 145 146 76 65 59 49 50 60 58 43 49 56 68 70 79 88 95 107 121 147 157 151 147 147 144 144 134 120 92
147 194 233 241 183 156 138 129 121 128 149 177 159 143 138 139 144 148 154 160 170 171 150 141 106 68 69 57 61 48 46 45 48 59 84 90 88 93 87 85 108 99 112 81 67 68 74 86 94
172 248 213 230 141 132 142 128 114 152 193 158 151 144 144 153 164 168 168 168 161 156 179 191 158 116 91 88 68 70 60 51 45 57 79 88 86 78 73 79 66 65 70 79 75 80 70 69 85
126 316 341 107 96 117 105 107 125 119 111 123 131 138 153 164 169 171 165 158 154 165 184 192 157 142 120 99 82 92 73 69 61 75 81 103 109 103 89 78 70 65 76 95 97 93 84 73 63
128 76 32 47 82 85 105 86 99 125 127 131 142 153 163 171 170 164 165 169 176 179 183 176 153 145 124 108 91 75 82 72 62 68 81 102 111 110 97 79 75 82 97 113 121 119 112 99 86
78 59 15 7 43 105 99 39 156 146 134 141 157 163 166 176 173 177 182 180 181 177 172 175 166 135 129 133 123 93 76 92 93 78 81 102 111 117 113 95 87 89 113 115 109 108 109 110 104
50 55 9 310 34 87 117 249 234 145 146 162 175 178 178 187 189 189 183 179 178 169 168 177 171 152 148 138 118 94 72 98 110 120 105 106 112 120 116 108 102 99 106 114 123 124 113 100 93
31 44 290 306 333 117 133 237 238 159 161 176 186 191 188 187 195 197 189 185 183 179 172 169 167 169 170 147 110 103 84 84 101 107 116 125 120 125 125 123 107 111 117 126 146 132 135 120 103
232 238 278 277 296 92 163 247 239 180 177 188 192 195 195 196 204 195 190 186 184 180 171 170 170 175 153 120 83 65 55 51 70 118 159 149 132 130 127 126 111 112 112 110 134 134 123 129 123
173 175 248 266 256 143 235 255 240 198 193 199 198 199 204 208 201 186 186 183 179 176 171 175 173 181 148 133 135 133 179 238 334 198 180 158 145 144 140 131 114 120 127 136 136 125 115 105 106
162 187 255 296 358 152 259 275 249 203 205 204 202 204 202 197 191 189 188 187 187 185 182 180 184 182 175 167 158 154 150 182 194 309 48 158 161 165 163 153 148 145 133 124 126 122 118 128 114
213 194 214 215 347 28 7 315 285 246 213 213 210 206 200 196 194 194 192 195 191 191 191 191 190 185 180 161 123 98 68 40 40 18 329 265 185 174 171 170 160 155 156 162 163 150 144 152 147
246 218 184 165 100 309 47 296 290 263 245 229 221 209 206 205 198 194 192 194 198 200 194 189 185 181 174 157 151 151 156 181 215 213 233 276 214 202 195 179 172 168 168 174 185 159 155 154 165
207 144 124 125 123 7 357 215 284 306 256 244 228 213 208 200 195 196 197 199 199 194 189 187 179 180 174 166 167 163 172 195 197 160 207 287 296 256 222 187 181 181 184 189 185 164 168 172 174
139 73 57 51 69 330 253 188 279 246 232 244 224 210 206 198 193 195 196 190 190 186 184 180 176 186 181 178 176 177 181 179 167 185 210 249 287 279 250 197 194 194 191 190 187 181 186 195 190
113 97 39 2 10 259 261 213 253 255 241 228 223 211 203 195 188 187 186 187 190 186 185 181 180 193 190 186 188 191 193 186 190 201 208 208 225 241 247 212 200 198 198 189 177 180 201 199 199
171 142 156 190 220 273 299 240 258 270 265 238 197 184 180 185 188 190 190 189 189 188 185 182 186 195 191 193 198 195 194 196 206 205 202 206 216 226 230 213 203 197 191 191 179 183 203 197 209
142 174 162 132 151 285 283 287 301 310 346 85 146 157 183 193 191 191 188 186 186 186 187 187 189 193 195 197 194 194 198 200 205 204 203 209 217 217 205 201 194 194 185 182 173 187 203 200 214
144 144 108 120 145 242 291 281 257 269 258 241 206 201 205 199 197 199 192 189 192 187 183 181 184 194 196 194 196 200 201 202 201 192 204 211 216 211 195 193 195 201 200 191 177 188 199 191 217
117 103 108 113 146 155 238 269 233 222 213 213 221 215 207 203 199 197 197 194 188 178 174 176 180 184 185 191 197 203 202 200 195 201 211 214 216 209 207 203 199 205 213 202 187 209 204 203 222
158 158 146 149 195 169 176 263 280 231 216 208 224 223 212 205 201 195 190 184 180 179 178 176 175 184 193 188 181 192 198 198 202 211 214 206 209 211 207 197 203 214 214 205 201 220 224 211 222